Zurück zum Katalog

THORAD AGENA D DEB

AktivSSO
NORAD 4774·DEBRIS·🇺🇸 United States

Gestartet Apr 8, 1970 von Vandenberg Space Force Base

Loading…

Nächste Überflüge (nächste 24 Stunden)

TLE

AktuellSource: Space-Track

Epoche: Sep 14, 2026, 14:46 UTC

1  4774U 70025DU  26257.61538286  .00000968  00000-0  92751-3 0  9997
2  4774  99.7607  35.7151 0040984 226.2632 195.7457 13.82766320802974

Verfolge THORAD AGENA D DEB in Echtzeit mit AllMySat

Download on the App Store